RH
17 17 16 16 15 15 15 14 13 13 13 12 12 15 17 18 23 35 43 43 42 45 49 53 54 55 59 66 75 79 81 84 88 91 89 87 83 78 76 75 74 74 74 74 74 70 64 57 53 49 45 43 46 57 73 88 97 96 93 92 91 91 90 89 92 94 95 94 93 94 96 95 92 89
17 17 17 17 16 16 16 16 15 15 14 14 13 13 14 13 13 20 27 30 31 30 31 35 39 41 41 44 52 63 72 77 81 83 81 77 72 67 64 62 61 60 58 55 49 42 37 34 35 36 34 29 25 28 40 60 83 95 97 95 92 92 92 92 92 93 94 94 95 97 98 98 98 97
21 20 19 18 18 19 19 17 17 16 15 16 15 14 14 14 14 14 15 18 21 21 19 19 22 25 24 22 23 26 34 42 48 54 57 56 54 49 45 42 39 37 35 34 30 25 25 28 33 36 35 32 28 25 26 34 53 75 91 97 96 95 95 96 96 93 92 94 96 98 98 97 99 100
25 23 22 22 22 22 21 21 20 20 19 19 19 19 20 21 22 22 21 22 22 22 21 20 21 21 20 20 18 15 17 19 21 24 27 29 30 29 28 25 25 27 29 31 33 33 34 38 44 49 49 46 42 38 34 31 34 48 68 82 88 91 91 92 94 94 95 98 98 97 97 97 97 99
29 28 25 24 25 26 26 26 26 25 26 27 26 26 27 29 29 30 31 32 31 31 31 31 32 31 29 28 26 23 22 21 19 18 17 17 17 17 18 19 22 28 34 39 43 44 44 45 47 49 50 50 48 46 46 44 42 42 50 60 66 70 73 75 79 83 87 92 97 98 98 98 97 96
35 34 32 29 28 29 28 29 29 29 29 30 31 30 31 31 31 32 34 35 35 36 36 37 37 37 37 35 34 32 30 29 27 25 22 21 19 18 19 20 23 29 37 45 50 51 50 48 46 47 47 48 50 51 51 52 53 52 53 55 55 54 54 54 56 59 65 72 83 93 99 101 99 98
43 42 39 37 35 32 31 30 30 31 30 31 32 32 32 32 32 32 33 34 35 36 37 39 39 40 40 39 38 36 34 32 30 29 27 25 23 22 22 22 24 30 38 46 51 54 54 51 48 47 46 46 48 51 53 54 55 57 60 60 57 51 47 46 45 43 44 49 58 71 86 97 101 100
52 51 49 46 43 39 37 35 33 32 31 32 34 34 33 32 32 32 32 32 33 33 35 38 39 41 42 41 40 38 36 33 30 28 27 26 26 25 25 26 28 32 38 45 52 56 56 54 54 55 55 52 51 51 52 52 52 53 56 59 59 56 52 48 44 40 37 37 38 44 57 74 90 98
64 63 61 57 53 49 45 43 39 36 34 35 35 34 33 33 32 33 32 32 32 32 34 36 39 41 43 43 41 37 35 34 31 29 26 25 26 27 29 32 36 39 39 42 46 48 49 48 48 50 51 52 52 50 49 49 51 52 54 56 57 57 56 53 50 49 48 45 41 37 36 42 55 71
72 71 70 68 65 60 55 50 46 42 42 43 42 38 35 34 34 34 34 33 33 34 34 36 38 41 42 44 43 39 35 32 30 30 29 26 24 23 23 26 31 36 39 42 46 49 51 52 51 49 47 45 44 43 43 44 48 52 55 59 61 61 58 55 55 59 63 64 61 54 45 37 33 38
76 75 75 74 72 69 66 62 57 53 53 56 58 53 46 41 40 39 37 37 36 36 37 37 38 40 41 41 40 37 34 30 26 27 29 30 28 24 21 19 20 22 25 31 37 42 46 48 49 47 43 41 41 41 42 43 46 51 53 55 58 59 60 61 63 68 72 74 74 71 66 56 44 34
80 78 78 78 76 74 74 72 68 65 64 67 72 71 64 61 58 51 45 43 42 40 40 38 37 38 39 39 37 35 34 32 31 29 28 30 31 29 25 20 17 16 16 16 18 23 27 29 31 33 34 38 44 47 46 47 52 56 57 60 62 62 66 70 72 74 73 72 74 74 74 71 63 52
82 80 80 80 79 77 77 77 75 72 72 74 76 76 75 72 67 62 57 52 49 45 42 39 36 37 40 39 37 38 37 32 32 31 28 26 27 26 25 23 19 17 15 15 16 20 25 28 30 35 39 44 50 51 48 47 50 50 47 52 62 70 74 74 74 76 76 77 76 75 75 77 76 70
86 83 81 81 81 79 79 79 77 76 75 76 77 77 76 72 69 68 66 61 55 49 43 40 36 36 41 42 37 36 35 30 29 29 27 26 25 23 24 24 22 20 19 18 17 18 22 26 28 31 34 38 46 51 52 51 50 45 34 29 40 60 73 76 77 78 80 81 81 79 78 79 81 82
87 85 83 83 82 81 80 80 79 78 78 78 78 78 77 77 76 73 68 63 57 50 43 39 36 35 39 42 38 33 31 29 27 27 26 25 24 23 23 24 23 22 22 21 18 16 17 19 20 22 22 24 28 33 36 37 36 34 26 19 22 36 52 63 68 72 75 79 81 83 82 82 85 87
87 86 85 84 83 82 81 81 81 80 79 79 80 78 77 78 79 76 70 65 57 48 42 38 39 40 40 39 36 31 29 28 26 26 26 26 28 29 27 24 22 21 22 24 23 18 17 21 22 21 21 22 24 25 25 26 25 22 22 21 19 21 26 32 38 42 46 52 63 77 85 86 88 90
88 87 87 86 85 83 82 82 82 81 80 80 79 77 77 79 79 77 74 67 55 45 41 41 44 46 44 40 34 30 31 31 29 28 27 27 31 35 34 31 26 22 24 31 34 26 19 23 26 24 22 25 30 31 31 30 30 27 26 25 24 22 21 20 20 21 21 23 32 51 72 85 87 88
88 88 89 87 85 84 83 83 84 83 81 81 80 79 80 80 78 76 72 64 51 44 44 46 49 49 45 40 35 33 34 37 37 36 34 32 32 33 33 34 33 28 27 36 46 41 27 25 29 28 24 26 30 34 35 35 36 37 36 34 31 28 26 24 24 24 22 19 19 27 45 66 78 82
87 89 91 87 83 82 84 84 84 84 83 82 81 80 80 79 76 74 71 62 51 47 48 51 54 51 45 41 40 39 39 42 45 47 47 47 45 41 38 36 35 34 32 38 50 52 39 31 32 31 30 32 33 35 40 43 47 50 49 44 40 37 38 41 42 43 40 34 28 24 28 41 55 65
87 91 92 87 83 84 86 86 85 84 83 82 82 81 80 78 75 72 69 60 51 49 51 55 57 55 51 51 52 52 50 49 51 53 53 52 51 51 49 42 36 35 33 37 48 54 49 42 40 38 37 40 41 41 44 51 58 62 62 58 54 54 58 61 61 62 61 57 49 41 37 41 48 54
90 92 91 88 88 88 86 85 84 83 84 83 81 79 76 73 69 65 61 54 48 50 55 59 60 60 61 61 60 59 58 54 53 53 52 50 49 50 50 46 41 39 38 38 44 50 53 58 60 55 47 46 48 48 51 56 61 66 72 73 71 70 70 69 68 67 67 68 67 62 58 58 60 61
90 90 89 88 87 83 82 84 85 85 84 79 74 72 68 65 61 56 52 49 50 55 59 60 60 60 59 57 54 53 53 54 54 54 53 54 54 53 54 52 48 46 44 43 48 54 60 68 75 71 62 57 54 53 58 62 62 65 74 78 79 81 81 77 74 74 73 73 74 73 72 71 69 69
89 88 87 84 83 82 85 87 86 82 77 72 68 66 62 57 54 51 51 52 54 55 53 51 50 49 49 51 52 53 54 55 56 56 57 60 62 62 62 62 62 61 57 55 61 66 69 74 79 83 85 82 73 68 70 70 62 61 69 75 77 87 95 92 87 88 87 86 85 85 85 84 80 76
88 87 85 84 85 87 87 84 81 77 73 69 67 64 59 55 52 50 50 51 49 48 46 45 47 49 52 56 59 60 61 61 60 60 61 65 70 73 73 73 75 76 70 67 73 79 83 87 91 94 99 99 94 89 86 81 70 61 63 69 72 81 94 99 98 99 98 95 95 95 95 95 93 91
87 87 88 88 86 84 81 77 73 69 67 65 64 61 56 51 47 44 43 42 43 45 48 52 56 59 61 63 65 67 67 67 67 68 69 71 76 81 84 84 86 86 82 80 86 93 96 98 99 99 100 100 99 97 92 89 83 71 66 70 73 75 83 92 96 97 98 96 94 90 91 92 92 94
89 88 88 86 82 79 75 71 69 68 68 65 58 50 44 40 40 41 43 46 50 54 58 62 64 66 68 69 70 71 71 73 76 78 79 81 83 84 86 89 92 94 92 91 95 98 99 99 100 100 99 98 98 97 96 95 91 81 75 79 81 78 81 85 88 90 92 94 92 86 83 83 83 84
92 89 88 87 86 84 80 77 75 71 64 53 42 37 38 41 46 51 56 61 66 69 72 75 75 75 75 74 75 76 78 81 84 85 85 86 85 84 87 92 95 95 94 94 95 97 98 99 99 98 98 99 100 100 100 97 92 86 84 86 87 85 83 83 82 83 85 87 88 85 82 79 78 78
93 92 91 90 88 84 79 74 65 52 41 34 34 40 48 55 61 66 71 77 80 83 85 85 84 82 79 79 82 85 87 88 88 89 89 88 88 88 90 93 93 93 94 94 94 94 95 96 96 95 94 96 97 99 99 98 95 93 89 88 88 87 87 85 82 80 80 81 82 82 81 80 78 75
93 90 87 81 74 66 58 49 39 32 33 39 48 57 64 70 75 79 82 85 87 88 87 86 86 85 84 87 89 91 93 96 96 94 93 91 92 92 91 89 88 90 93 95 94 93 93 95 96 95 93 92 93 95 97 98 98 94 88 87 88 88 89 91 88 83 80 79 78 78 80 82 81 78
83 75 68 59 49 41 35 31 31 35 42 50 58 65 71 77 82 84 86 88 87 85 85 85 87 89 89 89 89 89 91 94 96 95 93 90 90 91 90 89 88 87 88 89 90 90 90 93 97 99 99 97 97 97 98 98 99 97 91 89 92 93 93 96 97 94 89 86 84 82 81 82 81 79
59 51 43 36 31 30 32 36 41 47 53 58 63 68 72 77 81 84 85 86 85 84 85 86 86 86 85 84 85 86 87 88 89 91 91 91 90 89 89 90 90 87 83 81 83 85 87 89 92 96 99 101 100 100 100 100 100 100 97 93 95 98 98 98 100 98 97 98 97 92 90 90 87 85
37 33 30 30 33 39 45 50 54 57 61 63 64 66 69 72 75 78 79 80 81 82 84 84 83 82 82 82 83 84 85 84 85 86 89 91 91 90 90 92 91 88 85 81 79 81 85 87 89 91 95 98 100 100 100 99 100 101 100 97 98 100 99 96 95 94 96 99 98 95 96 98 95 90
30 31 34 40 46 51 54 57 59 60 61 61 62 65 68 70 72 75 77 79 80 81 82 83 83 82 82 83 83 84 85 85 84 86 89 92 93 94 95 97 96 95 94 91 85 82 85 90 91 90 91 93 96 98 99 99 97 95 97 98 99 98 95 90 88 89 92 94 94 93 97 100 97 91
34 38 45 50 54 56 57 58 59 60 61 62 63 65 66 69 72 75 77 80 82 83 83 84 84 85 86 87 86 87 89 90 88 89 93 96 98 99 99 100 99 99 100 99 92 87 88 92 94 94 94 92 91 92 94 95 92 89 90 93 93 92 89 86 86 87 87 91 95 97 99 99 94 90
40 47 54 58 59 60 61 61 62 63 65 66 68 68 68 71 75 77 79 81 82 83 84 85 86 88 89 90 89 90 93 95 94 94 97 99 100 100 100 100 100 99 100 100 95 91 92 95 97 98 98 97 95 91 88 89 92 92 91 89 88 87 86 87 90 89 87 91 98 100 98 94 91 91
49 56 60 62 65 66 65 64 64 66 70 72 75 77 75 73 74 76 78 80 81 84 86 88 89 90 91 92 93 94 96 98 99 99 100 100 100 100 100 100 100 99 99 97 94 93 96 98 100 100 100 100 100 97 90 87 90 92 92 90 87 86 88 94 98 94 90 92 97 98 95 91 92 96
58 60 62 67 70 69 67 67 69 73 77 77 78 78 77 76 77 78 80 82 85 88 91 92 93 95 96 97 98 98 99 100 100 100 100 100 100 100 100 100 100 99 98 97 95 96 99 100 100 100 100 100 100 100 98 93 89 89 91 91 87 86 91 99 101 98 94 92 93 96 97 94 95 99
60 63 68 71 72 70 72 74 76 77 78 79 81 81 81 82 83 83 85 88 90 91 94 96 98 99 100 100 100 100 100 100 100 100 100 100 100 100 100 100 100 100 100 99 98 98 100 101 100 100 100 100 100 100 100 96 90 88 92 95 93 93 96 100 100 100 99 98 97 99 99 98 99 100
63 68 71 71 73 76 77 78 78 80 85 89 90 89 86 86 88 90 92 94 95 96 97 99 100 100 100 100 100 100 100 100 100 100 100 100 100 100 100 100 100 100 100 100 100 100 100 100 99 99 99 100 99 99 98 98 96 95 98 100 99 99 100 100 100 100 100 100 100 100 100 100 100 100
67 69 71 75 77 77 77 79 86 93 97 95 92 89 90 93 96 97 98 98 99 99 100 100 100 101 100 100 100 100 100 100 100 100 100 100 100 100 100 100 100 100 100 100 100 100 100 100 99 99 99 100 100 99 99 100 99 98 98 98 96 96 98 100 100 100 100 100 100 100 100 100 100 100
68 71 74 76 75 76 82 91 97 100 98 93 89 91 95 98 99 100 100 100 100 100 100 99 100 100 100 100 100 100 100 100 100 100 100 100 100 100 100 100 100 100 100 100 100 100 100 100 100 100 100 100 100 100 100 101 99 96 96 96 93 91 95 99 99 98 100 100 100 100 100 100 100 100
70 73 72 73 77 85 94 99 99 98 95 92 92 96 98 100 100 100 100 100 100 100 100 100 100 100 100 100 100 100 100 100 100 100 100 100 100 100 100 100 100 100 100 100 100 100 100 100 100 100 100 100 100 100 100 100 100 98 97 97 94 92 95 99 99 98 99 100 100 100 101 100 100 100
71 72 73 79 87 94 98 98 97 99 98 95 96 99 100 100 100 100 100 100 100 100 100 100 100 100 100 100 100 100 100 100 100 100 100 100 100 100 100 100 100 100 100 100 100 100 100 100 100 100 100 100 100 100 100 100 100 99 98 99 97 95 96 99 100 99 100 100 100 100 100 99 99 98
71 74 79 87 92 93 94 95 97 98 98 98 99 100 100 100 100 100 101 100 100 100 100 100 100 100 100 100 100 100 100 100 100 100 100 100 100 100 100 100 100 100 100 100 100 100 100 100 100 100 100 100 100 100 100 100 99 99 100 101 98 95 95 99 101 100 100 100 100 100 101 100 99 99
74 80 84 88 89 89 90 92 94 95 97 99 100 100 100 100 100 100 101 100 100 100 100 100 100 100 100 100 100 100 100 100 100 100 100 100 100 100 100 100 100 100 100 100 100 100 100 100 100 100 100 100 100 100 100 100 100 99 100 101 98 96 96 99 101 100 100 100 100 100 100 100 100 100
Wind_Speed
4 3 3 4 4 4 4 3 3 3 3 2 2 2 2 2 5 7 7 5 4 3 4 5 4 2 2 3 4 5 7 8 8 8 9 9 11 12 13 14 14 15 16 17 18 19 20 21 21 21 20 20 20 20 19 20 20 22 23 24 25 27 28 28 28 27 25 24 25 25 26 25 20 17
5 4 3 4 4 4 4 3 3 4 3 3 3 4 4 3 3 4 5 5 3 2 2 3 4 4 3 4 5 6 8 9 9 10 11 13 14 15 15 16 17 19 20 21 21 22 21 21 21 21 21 21 21 21 21 21 20 20 21 22 24 25 26 27 28 28 28 28 28 27 27 28 26 23
5 4 4 4 4 4 3 2 3 2 2 3 3 3 4 4 4 4 3 3 2 2 1 2 4 5 6 7 7 8 9 11 12 13 14 15 16 17 17 18 19 19 19 19 19 18 17 16 16 16 16 17 18 19 20 21 21 21 20 20 21 22 23 24 25 27 29 31 32 30 30 30 29 27
3 3 3 3 4 4 3 2 2 2 2 2 2 3 4 4 4 4 4 3 2 1 2 2 2 4 5 6 8 8 8 10 12 14 15 16 17 17 17 17 16 15 14 13 12 12 12 13 13 14 15 16 16 17 18 19 21 22 22 21 20 20 21 21 22 23 25 28 32 33 32 32 31 30
0 1 1 2 2 3 3 3 2 1 1 2 2 3 3 3 4 4 4 4 3 3 3 4 4 5 5 6 7 8 8 8 10 11 12 13 14 14 14 14 12 11 11 10 10 10 10 11 13 15 16 16 17 17 18 18 19 20 21 21 21 21 21 21 22 23 22 23 25 27 28 30 32 34
3 3 2 2 2 1 0 1 1 1 1 0 1 2 2 3 4 4 5 6 5 4 4 5 7 7 7 8 9 9 10 11 10 11 11 11 12 11 11 11 10 10 10 10 11 12 12 13 15 16 17 18 18 18 18 18 19 19 19 19 20 21 22 22 23 24 25 24 23 23 24 25 27 30
5 5 5 5 4 3 3 3 3 3 3 3 2 2 3 4 5 6 7 9 10 9 9 9 10 11 11 11 11 12 12 13 13 13 12 13 13 12 12 12 11 10 10 11 12 13 15 16 17 18 18 18 19 19 19 19 19 20 19 19 19 20 21 22 23 24 26 27 27 27 26 25 24 24
7 7 7 7 7 6 6 5 5 5 5 5 5 5 5 6 6 8 9 11 12 13 13 12 13 14 14 14 14 15 15 14 14 15 15 15 15 14 14 14 13 12 12 11 12 13 14 15 16 16 17 17 18 18 19 20 21 21 22 22 22 22 22 23 23 23 24 26 27 28 29 28 27 26
10 9 8 8 9 9 8 7 7 7 7 7 7 8 8 8 9 9 10 11 12 14 15 15 15 15 16 16 16 17 18 17 17 16 16 16 17 17 16 15 15 15 15 15 15 15 15 15 16 16 17 17 18 18 19 20 21 22 22 23 23 24 24 23 23 22 22 22 24 26 28 29 30 30
13 12 10 10 10 10 9 9 9 8 8 8 9 10 11 11 12 13 13 13 14 14 16 17 17 16 17 18 17 18 19 21 21 21 19 18 17 18 19 18 17 18 18 19 19 19 19 19 20 20 21 22 24 25 25 24 24 23 24 24 24 24 24 23 22 21 20 20 21 22 24 26 28 31
16 15 13 12 12 11 9 9 10 9 8 8 10 12 13 14 15 15 16 16 16 17 17 18 18 18 18 19 20 19 20 21 22 23 24 22 20 20 21 21 21 21 21 21 22 23 24 25 25 25 25 26 26 25 23 22 21 22 22 23 23 24 23 22 22 22 22 21 21 21 22 23 24 26
18 18 16 15 15 13 9 9 10 11 10 8 9 12 14 15 16 17 18 18 18 19 19 19 19 20 19 20 21 21 22 23 22 23 25 26 25 24 24 23 24 25 25 24 25 25 26 27 26 25 23 21 21 20 18 17 17 17 18 20 21 22 22 23 23 23 24 23 23 23 22 22 22 23
21 20 19 18 18 16 12 10 11 12 12 12 13 15 15 15 17 18 19 20 20 20 20 20 20 21 21 21 23 23 23 25 25 25 26 27 27 28 27 25 25 27 27 27 27 26 26 26 25 24 21 19 19 19 19 18 19 19 20 21 22 23 23 23 24 24 25 25 25 25 24 22 22 21
23 24 23 21 20 19 15 13 13 13 14 14 16 17 15 14 16 18 19 20 21 21 21 21 22 23 22 22 24 25 25 25 26 27 28 29 29 30 30 28 26 26 27 28 29 27 25 27 27 26 25 24 23 24 24 24 25 27 29 27 25 25 26 26 26 26 26 26 26 26 26 25 23 23
24 26 25 23 22 21 19 17 16 15 15 15 15 16 15 16 19 20 20 20 21 22 22 23 24 25 25 24 24 26 27 27 28 28 29 30 31 31 33 32 28 27 28 30 32 30 28 28 29 28 28 28 28 29 30 31 32 33 33 31 28 28 29 30 30 30 30 30 29 27 27 26 26 24
24 26 27 25 24 24 22 21 19 19 18 16 14 14 15 17 19 21 22 21 22 23 24 25 25 26 27 27 26 27 29 30 30 30 30 31 31 31 32 33 32 29 28 31 34 33 30 29 30 30 28 27 27 28 29 29 30 31 31 29 28 27 29 31 33 34 35 35 34 32 29 28 26 25
23 25 27 27 26 26 25 23 21 21 20 17 16 15 14 16 19 22 24 24 24 24 25 27 27 27 28 29 29 29 30 31 31 32 32 32 33 33 33 34 34 31 29 32 36 36 32 29 30 30 27 26 26 26 26 25 25 25 25 25 25 25 25 27 29 32 34 36 36 36 33 31 28 26
19 23 27 28 28 27 26 24 24 23 21 18 17 16 16 18 20 23 25 25 25 25 26 28 28 28 29 30 30 30 30 30 31 32 33 34 35 36 36 37 37 34 31 32 37 39 35 30 31 31 28 27 28 27 26 25 23 22 21 22 23 22 22 23 25 27 29 32 34 35 36 35 33 30
16 21 26 29 28 26 25 25 24 23 20 19 19 19 19 20 21 24 26 27 27 27 28 29 29 29 30 31 31 31 31 31 32 33 34 35 36 38 39 39 39 37 34 33 35 39 38 33 33 33 30 28 29 27 24 23 20 18 19 20 21 20 20 20 21 22 24 25 28 30 32 34 34 33
15 19 25 27 26 24 24 24 23 21 20 20 21 22 22 21 22 25 27 28 28 29 30 31 31 31 32 32 33 33 33 34 35 36 37 37 38 40 42 42 41 39 36 34 34 38 40 36 35 35 32 29 29 26 23 19 17 16 16 16 17 18 18 18 18 18 19 20 21 23 25 27 29 30
17 22 25 25 24 23 23 22 21 20 20 21 22 21 21 21 22 25 27 28 29 30 31 32 32 33 33 34 35 35 35 35 36 37 39 38 38 40 43 44 43 40 38 37 36 39 40 36 32 33 32 30 29 27 24 21 18 15 14 14 15 16 17 17 17 17 17 17 17 18 19 21 23 25
21 24 24 23 22 22 21 21 21 21 21 21 21 20 21 23 24 26 28 29 30 30 31 32 33 34 34 34 35 34 33 33 32 33 34 33 33 36 38 40 41 41 40 36 33 34 35 31 28 30 31 30 29 26 23 22 19 15 14 15 15 14 15 15 14 14 14 14 15 16 16 17 19 20
22 23 23 23 23 22 21 21 21 21 21 20 20 22 24 25 27 28 29 31 31 32 33 34 34 34 33 32 32 31 30 29 27 26 27 26 27 29 31 32 35 37 37 32 27 29 31 30 27 27 27 28 28 25 23 23 21 18 17 17 16 13 12 11 11 11 11 11 12 13 14 15 15 17
21 22 23 22 21 20 19 19 20 20 21 22 24 26 27 28 29 31 31 32 33 33 34 33 33 32 31 30 29 28 27 26 25 24 23 22 23 24 26 27 28 31 33 30 26 27 28 27 26 24 23 25 28 27 26 26 25 21 20 21 20 16 13 11 10 8 9 9 9 10 12 14 15 16
20 20 19 18 17 18 18 19 20 21 23 24 26 27 28 29 31 32 32 33 32 32 32 31 31 30 29 28 27 27 26 25 24 23 22 20 20 20 22 24 25 27 29 27 24 24 25 25 24 24 24 25 28 29 29 29 27 24 22 23 23 20 18 16 12 9 8 9 8 8 10 12 15 17
18 17 16 16 17 18 19 21 22 23 25 25 26 27 28 29 29 30 30 30 29 29 29 29 29 29 28 28 28 27 26 25 23 22 21 20 19 20 20 21 23 26 25 22 20 22 26 26 25 25 25 26 27 28 28 29 28 26 24 23 22 21 21 21 18 15 12 10 9 8 8 10 12 14
15 16 16 17 19 20 22 23 24 25 26 26 26 26 26 26 26 26 26 26 26 26 26 27 28 29 29 29 28 27 26 24 24 23 23 22 21 21 21 21 22 25 24 21 20 21 24 27 28 27 28 28 28 28 28 29 29 28 27 25 23 21 20 21 22 22 18 14 13 12 12 12 12 13
16 18 18 19 20 21 22 23 24 24 24 24 24 23 23 23 24 23 23 23 24 25 26 27 29 29 27 26 26 25 25 24 25 25 25 25 23 23 23 23 24 25 24 23 22 21 23 25 26 26 27 28 29 30 30 30 29 28 28 29 27 24 20 18 20 23 22 20 19 18 18 17 17 16
17 17 18 18 19 20 21 21 21 21 21 20 20 20 20 21 21 22 23 23 24 26 27 27 27 26 24 23 24 24 25 25 26 26 27 28 27 27 28 28 28 28 27 26 24 23 23 24 25 25 26 27 29 31 31 30 29 29 29 30 29 26 21 16 15 18 20 21 21 22 22 20 19 19
15 16 16 17 17 18 18 18 18 18 18 18 19 19 20 21 21 22 23 24 25 26 26 25 25 24 24 25 25 26 26 27 27 27 28 29 30 30 31 32 33 32 30 29 28 26 25 26 26 26 26 27 28 29 29 29 29 28 27 27 27 24 19 15 12 12 13 15 17 19 20 19 19 20
14 14 15 15 15 15 15 15 15 16 17 18 20 21 21 22 22 23 23 24 24 24 24 25 25 26 27 28 28 27 28 28 28 27 28 29 30 30 31 33 35 34 32 31 30 29 29 28 28 28 27 26 26 26 25 26 27 26 25 24 25 24 21 19 16 12 10 11 12 14 15 15 17 18
12 12 13 12 12 12 12 12 13 15 17 19 20 21 21 21 21 21 21 21 22 22 24 26 27 28 29 29 29 29 29 29 28 27 27 29 30 29 29 31 33 33 32 31 30 29 28 27 27 29 29 28 26 25 24 24 25 25 24 24 25 25 24 23 21 16 13 12 12 12 13 14 15 16
10 10 10 10 9 9 10 12 14 16 18 18 18 17 17 17 17 18 19 21 22 23 25 27 28 29 29 29 29 29 29 29 28 27 27 28 28 28 28 29 30 30 30 30 29 27 26 25 25 26 27 28 28 26 25 26 26 25 25 25 26 25 25 24 22 20 17 15 14 13 14 16 15 15
7 7 7 7 8 9 12 14 16 17 17 16 15 15 15 16 17 18 20 21 23 24 26 27 28 28 28 28 28 28 28 28 28 26 26 26 26 26 26 26 27 27 28 28 28 27 26 24 23 23 24 25 27 27 27 27 28 28 26 25 26 26 25 23 21 20 19 17 14 13 13 14 14 14
4 4 5 7 9 12 14 16 16 15 15 15 15 16 17 17 18 20 21 23 24 25 26 26 26 26 26 26 27 27 27 27 27 26 25 24 24 24 24 25 26 26 26 27 27 25 23 22 21 21 22 22 23 25 26 26 26 26 25 24 24 24 22 18 16 17 18 17 14 13 13 13 12 11
4 5 7 9 12 14 15 15 15 14 14 15 16 18 20 21 21 22 23 23 24 24 24 25 25 25 24 25 25 26 26 26 25 25 24 23 23 24 24 25 26 26 26 26 25 23 21 19 19 19 19 19 19 21 23 21 20 20 21 21 21 19 16 14 12 14 17 17 16 15 16 15 13 10
6 8 9 11 13 15 15 15 14 14 15 16 17 19 21 22 22 22 22 22 22 22 22 22 23 23 23 23 24 24 24 24 24 24 24 23 23 23 24 25 25 25 25 25 23 21 19 18 17 17 17 18 18 20 20 19 17 16 17 17 17 14 13 12 11 12 14 15 16 16 16 15 12 8
7 8 10 12 14 15 15 14 14 14 15 16 17 19 20 21 21 21 21 21 21 21 21 21 21 22 22 22 22 23 23 23 23 23 24 23 23 23 24 24 25 25 25 24 23 20 19 18 17 17 17 18 19 20 19 18 16 14 13 12 11 10 11 11 12 11 11 13 14 15 14 12 10 7
7 9 11 13 14 14 13 12 12 13 15 17 18 20 20 21 21 20 20 20 20 20 20 21 21 21 21 21 21 21 22 22 23 23 23 23 23 23 23 23 23 23 23 23 22 21 19 18 18 17 17 18 20 19 18 16 14 12 11 11 12 12 12 11 10 10 12 14 15 15 13 11 8 5
8 10 11 12 12 12 11 10 12 14 16 18 18 19 19 20 21 21 21 21 21 21 21 21 20 20 21 20 20 20 21 21 22 22 22 22 22 22 22 22 22 21 22 23 22 21 20 17 15 14 14 15 15 13 13 14 14 12 11 13 14 15 14 12 10 10 13 16 16 15 13 11 8 7
8 10 11 10 10 10 9 10 13 15 16 16 17 19 20 21 22 22 22 21 21 21 21 21 20 20 20 19 19 19 20 21 21 21 22 21 21 21 20 20 20 21 21 22 22 19 16 13 11 10 11 11 9 10 12 15 15 12 10 10 13 16 16 13 11 11 13 15 15 14 13 10 9 8
8 9 9 8 7 7 9 12 14 15 15 16 17 20 22 23 24 23 22 21 21 20 20 20 20 20 19 19 18 18 20 21 21 20 20 20 20 21 20 19 19 20 20 20 19 16 13 10 9 9 10 9 9 11 13 14 13 10 8 8 12 15 15 12 11 13 14 14 12 11 10 10 9 10
7 7 7 5 5 8 10 12 13 15 16 17 18 20 23 25 25 24 23 22 21 20 20 21 21 20 20 19 19 18 19 19 19 19 19 19 20 20 20 19 18 18 18 18 16 14 10 8 8 9 9 10 10 11 12 11 9 8 7 7 9 12 12 10 10 12 15 15 11 8 6 5 5 6
6 5 5 5 7 9 11 12 14 16 18 19 19 20 23 25 25 24 23 22 22 21 21 22 22 22 21 21 20 19 18 18 18 18 19 19 19 19 19 18 17 16 16 15 14 11 9 7 7 8 8 9 9 10 10 9 8 8 7 7 8 10 9 7 8 11 15 15 12 6 3 3 0 2
4 4 4 6 8 10 11 13 15 17 19 20 20 20 22 24 25 25 24 23 23 22 22 22 23 23 22 20 20 19 17 17 17 18 18 18 18 17 16 16 15 15 14 12 11 9 7 6 6 6 7 7 9 9 9 8 8 9 8 7 8 8 7 5 7 12 15 14 11 6 4 3 1 3
Wind_Direction
120 130 132 130 125 118 113 108 111 109 95 83 71 68 102 161 181 180 174 171 172 169 174 180 182 183 208 217 209 209 218 224 225 224 228 238 250 259 266 271 276 279 282 283 283 284 284 283 281 280 278 275 271 269 268 268 268 267 267 267 268 269 270 268 269 269 268 268 271 273 274 274 268 257
107 113 118 117 110 102 100 102 103 106 107 100 90 89 95 104 123 148 168 185 202 210 196 226 238 236 252 258 243 237 237 238 239 239 243 252 261 268 274 278 280 282 283 285 285 285 283 282 280 278 276 273 270 267 265 264 264 265 266 266 266 267 269 270 270 269 268 268 270 271 272 274 275 272
99 106 104 97 94 87 72 71 76 78 88 90 91 91 83 81 84 90 118 156 216 263 294 315 291 280 282 285 278 268 261 258 258 258 259 263 268 273 277 280 283 285 287 289 291 289 284 279 275 273 270 268 266 265 264 263 263 263 264 265 264 264 267 269 269 269 268 269 269 269 269 269 270 272
91 105 111 102 99 101 92 72 65 63 65 61 73 82 74 71 72 70 74 84 82 35 6 12 334 308 300 297 291 280 272 269 267 266 267 268 269 272 275 278 280 282 284 287 291 291 286 277 272 269 267 265 263 264 265 266 265 264 264 265 265 265 266 267 269 270 270 270 268 265 265 266 268 270
69 89 143 155 123 108 98 81 74 82 90 86 78 70 60 55 47 42 37 36 55 53 17 3 347 328 316 310 303 291 283 280 277 275 275 274 273 273 273 274 275 276 280 285 289 289 284 276 271 270 268 266 264 265 267 269 268 266 264 265 267 268 269 268 268 269 269 270 268 265 266 269 270 268
266 273 265 244 224 177 89 30 8 337 318 23 68 37 12 14 2 353 351 343 339 344 342 339 336 330 323 320 318 309 300 295 290 286 283 282 280 279 279 279 282 287 289 291 291 289 286 281 278 275 272 269 267 267 269 271 272 270 267 266 267 269 271 271 270 269 270 269 268 266 265 267 268 266
269 273 278 275 260 249 253 265 278 293 299 301 309 312 316 332 332 322 319 320 320 322 326 331 332 331 329 325 323 319 312 307 303 297 292 288 285 283 282 281 283 288 290 292 292 291 289 286 283 280 276 273 271 270 270 271 271 271 269 268 267 268 270 271 271 269 268 268 267 267 266 264 264 264
273 271 272 277 274 266 264 267 272 281 292 297 295 296 302 309 311 309 307 309 312 314 318 325 328 327 326 325 323 318 312 309 308 306 304 301 296 292 290 288 287 286 284 285 287 286 284 282 279 279 280 279 276 275 273 272 271 269 268 268 267 268 269 270 271 270 269 267 266 265 265 265 264 263
279 272 266 268 270 269 271 275 280 285 294 304 303 301 301 301 301 301 300 301 304 307 311 315 318 320 319 318 319 317 313 310 307 305 307 307 303 300 298 296 294 292 290 287 285 282 279 277 278 280 282 282 280 279 277 274 272 270 268 267 266 266 267 268 270 271 271 270 268 266 265 264 263 263
277 275 266 260 260 261 264 269 278 290 301 310 313 307 301 298 298 298 297 298 300 303 306 309 311 312 313 313 313 313 313 312 310 308 306 305 303 301 299 296 291 288 287 287 286 286 283 282 283 284 285 285 284 282 280 276 274 272 270 268 266 266 266 266 266 266 266 266 266 267 266 265 264 262
271 271 267 262 258 256 260 263 269 282 294 302 308 307 303 301 300 299 299 301 303 304 304 306 307 308 310 311 310 310 310 309 308 307 305 303 301 298 297 296 293 288 285 283 282 282 282 281 282 283 284 284 281 279 277 274 272 271 270 269 267 266 265 263 262 262 261 261 261 261 262 263 264 263
266 266 265 264 259 258 267 274 269 270 278 287 300 304 303 303 302 302 303 305 306 306 306 306 306 307 308 308 306 306 306 306 305 305 306 305 303 301 299 300 299 295 292 289 285 282 282 281 281 282 282 279 275 272 269 266 265 266 268 267 265 264 262 261 262 261 261 262 261 261 260 261 262 263
258 260 262 264 263 261 267 281 280 274 276 287 302 304 297 293 296 300 304 307 307 306 306 305 305 304 304 304 305 305 307 309 308 307 306 304 303 301 299 298 300 299 297 294 289 286 283 283 282 282 280 277 273 271 268 265 263 265 270 270 265 262 262 262 262 262 262 263 263 261 260 260 260 261
253 254 257 260 264 264 262 271 281 276 274 286 301 300 290 287 296 301 302 304 305 305 305 304 304 303 302 303 306 307 307 307 306 305 304 303 302 301 299 296 296 298 299 296 291 287 285 284 282 279 278 276 273 271 269 267 266 268 273 274 267 261 262 262 261 261 262 262 262 260 258 258 258 259
251 250 253 256 259 260 257 258 264 263 263 275 289 292 289 294 301 302 301 302 302 302 301 301 302 303 303 303 305 306 306 305 305 305 304 303 303 303 302 300 298 298 300 298 293 290 289 290 288 284 281 280 276 274 272 271 271 274 276 276 269 263 261 261 261 261 261 261 261 259 257 256 257 258
250 248 251 253 255 256 253 251 253 255 257 265 275 281 286 294 300 301 303 302 300 299 299 300 302 303 304 304 306 308 308 306 306 306 304 304 303 302 301 301 300 300 302 301 297 291 289 293 294 290 289 289 287 283 280 279 277 277 278 279 276 270 264 260 259 259 259 259 259 258 256 254 255 255
255 250 250 251 252 250 246 245 248 251 254 264 273 277 284 296 302 304 303 301 298 298 299 301 302 303 304 305 307 307 306 305 304 304 302 302 302 301 300 300 300 301 302 303 301 295 291 294 295 292 292 294 295 294 292 289 285 283 283 281 278 273 267 262 259 257 256 255 254 254 254 253 252 253
261 253 250 248 246 242 240 243 247 250 256 266 275 279 287 298 304 304 300 296 293 294 296 297 298 300 300 301 302 302 302 302 302 302 301 300 300 299 300 299 299 301 302 303 302 298 295 296 296 294 293 293 295 297 296 295 294 292 286 280 276 273 269 265 263 261 259 256 253 252 252 252 252 253
262 253 247 243 240 240 242 245 248 254 263 273 280 285 289 294 299 299 294 290 290 292 294 295 296 297 297 298 299 300 301 301 301 300 299 298 298 297 297 296 297 298 299 299 298 296 295 296 295 295 297 295 294 295 297 299 298 292 285 281 278 275 270 266 265 266 267 264 259 255 253 252 252 252
256 244 241 241 242 242 244 247 251 260 268 274 279 284 286 287 290 291 288 287 290 292 293 294 295 296 297 298 299 300 300 299 299 297 294 293 294 293 292 292 293 295 295 295 294 293 294 296 296 296 297 296 294 294 295 296 292 285 282 282 281 277 274 270 268 268 270 269 266 261 257 254 253 252
240 233 235 239 241 240 240 246 254 261 266 271 275 278 281 281 283 284 285 287 288 289 290 291 293 294 296 296 297 297 296 296 295 294 292 292 292 290 289 290 291 292 292 291 292 292 293 297 299 296 295 294 294 294 293 290 286 282 278 278 280 279 275 271 269 268 268 268 266 262 259 257 256 254
236 233 234 235 236 237 242 251 259 264 268 271 274 278 280 280 281 284 285 285 285 285 285 287 289 290 292 292 292 293 293 292 293 292 292 292 291 289 288 289 290 290 290 291 292 293 293 296 298 298 298 296 293 293 292 288 284 278 270 271 278 282 277 272 270 270 269 267 264 258 255 256 256 255
237 235 235 235 237 243 252 260 266 270 271 273 277 280 281 282 284 285 284 284 284 285 286 288 289 290 291 292 292 292 292 291 291 290 291 292 293 292 291 291 291 289 288 290 292 291 291 295 298 301 304 302 297 295 295 291 286 278 271 270 274 280 282 275 269 269 273 275 273 266 261 260 259 257
239 237 237 239 244 252 259 265 268 270 272 274 277 279 281 284 285 285 285 286 288 289 291 292 293 293 294 294 294 294 294 293 293 291 290 292 294 295 296 296 294 289 287 288 289 288 290 295 298 300 301 298 297 298 299 297 294 288 281 276 274 273 273 270 267 270 273 277 282 282 278 275 272 269
240 240 243 247 253 258 261 263 264 265 268 272 275 278 281 282 283 284 285 287 289 291 292 293 293 294 294 295 295 295 295 296 296 295 295 293 292 293 296 298 297 294 292 293 291 286 286 288 292 294 294 292 293 296 297 298 298 295 291 286 280 273 268 264 264 269 269 268 272 279 282 282 281 278
242 245 251 258 264 266 266 265 265 267 271 276 279 281 281 281 282 283 285 287 289 290 291 292 293 295 296 296 296 297 298 299 299 298 297 293 289 287 288 290 291 291 294 298 294 285 281 281 283 287 289 290 292 294 294 296 298 299 298 295 290 283 274 265 262 266 271 269 266 269 276 283 284 282
255 259 263 268 272 272 271 270 271 274 278 279 280 281 281 282 284 286 288 290 291 292 293 294 295 297 298 298 299 300 301 301 300 298 296 293 290 287 284 281 281 283 287 290 289 284 281 279 278 279 281 284 288 290 290 292 295 297 297 297 298 295 286 273 265 267 271 271 270 273 276 282 288 287
265 267 268 268 269 268 270 273 276 278 280 281 282 284 285 287 288 290 291 293 293 294 295 296 297 298 299 300 301 302 302 300 298 296 294 290 287 284 281 278 276 278 280 281 281 280 279 279 279 278 279 281 284 286 287 289 291 293 294 296 299 299 294 283 271 268 269 270 273 276 278 283 289 290
263 264 265 267 268 269 272 275 277 279 281 284 285 287 287 289 290 291 291 292 294 296 297 297 296 297 298 299 299 298 298 296 295 294 292 289 287 284 282 279 275 274 275 275 274 273 273 275 277 278 278 279 280 281 283 285 287 288 289 291 295 297 296 288 276 269 267 268 270 273 278 285 292 294
261 264 266 268 269 271 273 275 278 282 284 286 287 288 289 289 289 289 291 294 296 297 296 295 295 294 295 294 293 292 292 291 291 292 291 290 289 287 285 283 280 278 276 275 273 271 269 270 273 274 276 277 277 277 279 281 283 285 285 286 291 294 292 287 285 280 276 274 274 275 279 284 288 291
263 263 264 265 268 272 277 281 285 289 291 293 294 292 290 288 287 288 291 294 294 294 294 293 293 293 293 292 291 289 288 288 289 291 290 290 289 288 286 285 284 282 280 278 275 273 271 269 268 270 273 276 276 277 278 280 281 283 283 283 286 287 286 285 286 284 283 287 287 286 287 286 284 286
258 259 262 268 272 277 282 287 292 297 300 299 297 293 289 287 287 288 289 290 291 291 291 292 293 293 293 293 292 290 288 286 287 288 288 288 289 289 287 285 284 284 283 281 279 277 275 272 268 265 266 270 273 275 277 278 279 280 281 279 280 282 284 284 282 275 272 279 285 289 290 286 283 285
259 264 268 271 274 280 288 297 303 305 305 303 299 295 292 290 288 288 289 290 291 292 292 292 293 295 295 295 294 294 291 290 289 289 288 288 290 290 289 286 285 285 285 285 285 284 282 279 274 267 264 264 267 270 272 274 274 275 276 277 279 280 280 279 276 271 266 268 277 285 287 284 283 285
271 273 273 274 284 298 307 312 312 310 308 305 302 298 295 292 290 290 291 293 295 296 296 296 297 298 299 299 299 298 297 295 295 293 292 291 291 291 289 286 285 284 284 285 286 287 287 285 282 277 271 266 265 264 264 267 269 270 271 273 276 277 276 275 272 265 259 261 269 277 281 283 286 288
280 289 297 306 316 321 321 318 315 310 305 302 300 299 298 297 298 300 302 303 303 302 301 302 302 301 302 302 301 300 298 297 297 296 296 295 294 292 290 287 286 285 285 284 285 287 289 288 286 283 279 275 272 267 263 261 263 267 269 269 271 274 275 275 268 257 250 250 257 267 277 289 296 298
323 328 328 328 328 327 323 317 311 306 303 303 304 306 308 307 307 309 309 307 305 304 304 304 303 302 302 302 301 300 299 297 297 298 298 297 295 294 292 289 287 288 287 286 287 289 290 288 285 281 277 276 274 272 268 263 261 263 265 266 266 268 269 268 261 249 242 242 250 263 276 290 300 305
336 330 330 329 325 323 320 313 307 307 309 310 312 314 314 314 314 314 313 311 309 308 307 305 304 304 304 303 301 300 299 298 298 298 297 297 296 295 293 291 291 290 290 289 290 290 289 286 282 276 272 270 269 269 271 271 266 261 262 263 261 258 257 260 258 247 238 239 249 261 272 283 292 299
332 330 329 324 320 318 315 310 307 311 315 318 321 323 323 323 322 320 318 316 314 312 310 308 308 308 307 306 305 303 301 300 299 297 297 296 296 295 294 293 293 293 293 293 293 291 288 285 280 273 266 262 261 262 266 271 271 266 263 261 255 247 249 257 259 250 239 238 246 255 265 273 278 279
334 331 325 320 318 317 313 310 314 322 330 334 336 335 332 329 327 326 323 321 319 316 315 313 313 312 311 309 307 305 303 300 298 296 296 296 295 295 294 294 294 294 294 294 294 292 288 283 278 271 264 258 257 260 263 267 269 266 259 253 244 236 238 247 251 248 242 238 242 250 255 254 251 247
334 328 322 319 316 312 312 321 334 343 346 345 344 341 338 337 337 335 332 329 327 324 321 319 318 316 313 311 309 306 303 300 298 298 298 298 297 296 294 294 294 294 294 294 293 291 288 285 281 278 273 267 264 262 261 261 262 258 251 244 235 227 228 235 240 242 241 238 240 248 250 244 235 227
331 326 321 316 311 312 328 348 352 350 349 348 349 350 349 348 347 343 339 335 332 328 325 323 322 320 317 315 313 310 307 305 303 302 302 300 298 295 294 293 293 294 295 294 293 292 292 292 289 283 275 267 257 251 252 258 261 258 248 237 224 218 223 229 227 227 234 237 239 242 239 233 227 218
332 327 320 313 315 337 2 4 355 348 349 353 356 355 353 352 351 348 344 340 337 333 331 330 329 327 324 321 318 315 311 309 307 306 304 302 299 296 295 294 295 296 295 293 293 296 299 295 283 274 265 252 240 239 246 253 257 253 242 227 214 212 219 225 221 220 229 239 246 247 237 225 218 215
336 327 320 328 359 15 12 3 355 352 354 356 356 355 354 353 353 352 349 346 344 341 339 338 338 336 334 332 327 322 316 313 311 310 308 306 303 299 296 295 296 297 296 294 295 299 299 285 267 259 254 244 236 237 240 243 242 235 230 225 216 211 214 220 217 215 222 231 242 260 259 237 223 228
338 333 344 15 25 19 10 4 2 1 359 356 355 355 355 355 357 356 352 350 349 346 343 344 344 343 341 338 333 327 321 317 315 314 312 309 306 302 298 296 297 297 295 295 297 298 292 272 251 244 242 237 231 228 227 223 217 213 215 221 217 210 209 211 204 200 207 217 225 234 238 224 227 14
350 3 25 33 28 22 17 13 9 6 2 358 355 354 354 357 1 1 357 354 352 349 346 347 348 347 344 341 335 331 327 325 321 317 314 311 308 304 300 297 297 297 294 291 292 291 279 253 236 231 229 224 214 206 202 199 197 199 206 214 212 206 206 204 195 192 195 204 211 208 196 199 170 58